Wind_Speed
11 11 12 11 14 15 11 7 7 7 7 7 6 5 4 3 2 2 3 4 5 5 6 6 7 6 5 5 6 7 8 8 9 9 10 10 9 9 9 9 9 8 8 8 8 7 7 7 7
10 10 10 12 13 11 7 6 7 7 7 7 6 5 5 4 2 2 3 4 4 5 5 6 6 5 4 4 5 6 6 7 8 8 8 8 9 9 9 9 8 8 8 7 7 7 7 7 7
9 9 11 12 12 9 5 6 8 7 7 7 6 6 6 4 3 2 2 3 3 4 5 5 5 5 4 4 4 5 5 6 6 6 7 7 8 8 9 8 8 8 7 7 7 7 7 6 6
7 8 11 11 9 6 6 6 7 7 7 7 6 6 6 5 3 2 1 2 3 4 5 5 5 5 5 4 4 5 5 5 5 6 6 7 7 7 8 7 7 7 7 6 5 5 6 6 6
6 8 10 8 6 3 6 5 6 6 7 8 7 7 6 5 3 2 1 2 3 4 5 5 4 4 4 4 4 4 4 5 5 5 6 6 7 7 7 7 7 6 6 6 5 5 5 6 6
5 7 8 4 2 6 6 5 6 6 7 8 7 6 6 6 4 2 1 1 2 3 4 4 4 4 4 4 4 4 5 5 5 5 5 5 6 6 6 6 6 5 5 5 5 5 5 5 5
4 5 6 2 3 6 7 6 5 7 6 6 8 6 6 6 5 3 2 0 1 3 3 4 4 4 4 5 5 5 5 5 5 5 5 5 5 5 5 5 5 5 5 5 5 5 5 5 5
4 4 7 1 4 8 9 6 6 7 7 5 7 7 5 6 5 4 3 1 1 1 2 4 4 4 4 5 5 5 5 5 5 5 5 5 5 4 4 4 4 4 4 4 3 3 3 3 4
5 6 7 2 5 9 10 6 7 7 6 6 7 7 6 6 6 5 4 2 1 2 2 4 4 4 4 5 6 6 6 6 6 5 5 5 5 4 4 3 3 3 3 3 3 2 2 2 2
7 7 7 3 7 9 10 7 7 7 8 7 7 7 6 6 6 6 4 4 3 2 3 4 5 5 5 5 6 6 6 6 6 6 6 6 5 4 4 3 3 3 3 3 2 2 2 1 1
9 8 8 10 12 11 8 8 7 7 10 8 6 7 7 6 7 6 5 5 4 3 3 4 5 5 6 6 6 6 6 6 6 7 7 6 5 5 5 4 4 3 3 3 3 2 2 1 1
11 11 11 11 13 11 8 9 8 8 10 9 6 7 7 8 8 8 7 6 5 5 4 4 5 5 6 7 7 6 6 6 6 6 7 6 6 6 5 5 4 4 4 3 3 3 2 2 2
14 13 13 13 13 11 10 10 9 10 11 10 9 8 8 8 9 8 7 7 7 6 5 5 5 6 7 7 8 7 7 7 7 7 7 6 6 6 5 5 5 5 5 4 4 3 3 3 3
15 15 14 14 13 12 11 10 11 12 13 12 9 8 8 8 9 9 9 8 7 6 6 6 6 6 7 8 8 8 8 7 7 7 7 7 7 7 7 6 6 6 6 5 5 4 4 3 3
17 16 15 14 13 13 12 11 12 12 13 13 11 9 8 8 9 9 9 9 8 7 7 7 8 8 8 9 9 9 8 8 8 8 8 8 8 8 8 8 7 6 6 6 6 6 5 5 4
18 17 15 13 13 14 12 11 12 14 14 14 13 11 9 10 10 10 10 9 9 8 8 9 9 9 9 9 9 9 9 9 9 9 9 9 10 9 9 9 8 7 7 7 7 7 6 5 5
18 16 14 13 14 15 14 11 14 15 15 16 15 13 11 10 10 10 10 10 10 9 10 10 10 10 10 10 10 10 10 9 10 10 10 10 10 10 10 10 10 9 8 7 8 8 7 7 6
16 13 13 13 16 17 15 14 16 15 15 15 16 14 12 11 11 11 11 11 10 11 11 10 9 9 10 10 11 11 11 11 11 11 11 11 11 11 11 11 11 11 9 9 8 8 8 8 7
17 15 15 14 17 20 17 16 16 15 15 17 16 15 13 12 12 12 12 11 11 11 11 10 10 10 10 10 11 11 12 12 11 11 11 12 12 12 12 12 11 11 10 10 9 9 9 9 8
22 21 17 17 20 22 20 18 18 18 17 17 16 16 15 14 13 13 12 11 12 12 12 11 10 10 11 11 11 11 11 12 12 12 12 12 12 13 13 13 12 12 11 11 10 10 10 9 9
25 23 19 19 21 22 20 19 20 21 19 20 18 18 17 15 13 14 13 12 12 12 11 11 10 11 11 11 11 12 12 12 13 13 13 14 14 15 14 14 14 14 13 13 12 11 12 11 10
26 24 21 21 22 21 20 19 21 22 21 20 20 19 17 17 15 14 14 14 12 11 11 11 11 11 11 10 11 11 12 13 14 15 15 15 15 15 15 15 15 15 14 13 13 13 13 13 12
25 23 23 24 24 22 20 20 21 23 23 21 19 17 17 18 17 15 15 14 14 12 12 12 13 13 12 12 12 13 13 14 14 14 15 15 16 16 16 16 16 16 15 15 15 15 15 14 14
27 25 25 25 24 25 22 21 23 24 21 20 18 17 17 18 17 16 15 15 15 14 14 14 14 14 14 13 14 14 14 15 15 15 15 15 16 16 16 16 17 17 16 16 16 16 16 15 15
29 27 26 25 25 24 22 23 24 23 21 18 17 18 17 18 17 17 16 16 15 15 15 15 14 15 15 15 15 15 15 15 15 15 16 16 16 16 16 17 17 17 17 17 17 17 16 16 16
29 28 25 23 21 21 21 24 24 22 21 19 18 18 18 18 18 17 17 16 16 16 15 15 15 14 14 15 15 15 16 16 15 15 15 16 16 17 16 16 16 17 17 17 17 17 17 17 17
29 28 24 21 18 17 19 20 23 24 23 22 21 20 18 18 17 17 16 15 15 15 15 15 15 15 15 15 16 16 17 16 16 15 15 15 15 16 17 16 17 17 18 17 17 18 18 18 18
28 27 27 26 24 22 21 23 24 23 23 23 22 20 19 18 17 17 17 16 15 15 15 15 15 15 15 16 16 16 17 16 16 16 15 15 15 15 16 18 18 19 19 19 20 20 20 20 20
28 29 29 27 26 22 20 21 22 21 21 20 19 18 18 18 17 17 16 16 16 15 15 16 16 16 16 16 16 16 16 16 17 16 16 15 15 16 16 17 18 19 20 19 20 21 21 20 20
27 28 30 29 28 25 22 19 19 21 20 18 17 17 18 18 17 16 16 15 15 15 15 16 16 16 16 15 15 16 17 17 17 17 16 15 15 16 16 16 17 18 19 19 19 19 19 19 20
Wind_Direction
73 75 75 72 63 61 52 20 5 4 10 13 9 3 15 24 51 69 87 104 113 126 130 131 127 124 125 129 132 141 147 144 141 135 134 130 125 122 118 114 111 110 108 105 102 101 97 90 87
78 77 75 68 61 57 32 2 353 1 6 8 5 1 8 18 31 56 90 112 124 134 138 143 139 137 138 147 146 149 152 154 151 144 135 131 129 126 120 117 113 112 107 101 99 95 90 85 81
86 83 76 64 48 41 9 352 345 355 6 4 360 1 6 13 28 52 85 115 134 139 140 142 144 145 152 163 168 162 162 160 156 150 144 141 135 130 122 119 116 114 108 100 96 94 91 84 82
93 90 83 73 59 17 339 343 343 349 359 359 356 7 5 12 24 43 80 125 140 149 150 149 147 150 159 170 176 172 168 167 162 158 154 148 139 132 125 123 121 117 111 104 101 97 93 86 84
100 91 80 75 74 325 312 326 331 344 350 347 354 3 5 11 17 37 74 123 142 154 159 159 157 162 172 181 184 182 180 178 174 166 161 156 147 138 133 131 129 123 117 113 109 102 98 90 85
110 98 82 73 74 295 304 319 322 328 340 340 347 352 4 6 9 15 38 110 139 152 157 165 172 175 184 191 193 194 194 190 184 178 173 169 156 144 142 138 135 130 126 123 117 107 101 91 85
137 115 99 8 273 286 299 309 305 309 323 340 337 339 357 358 356 350 349 12 153 165 166 170 184 188 196 200 201 204 205 202 196 189 184 178 170 160 154 149 146 141 134 131 125 114 105 96 89
152 137 124 141 278 279 294 300 292 296 308 332 328 328 348 349 348 343 339 331 217 202 195 184 193 197 203 209 213 214 213 212 209 202 198 193 186 180 168 160 157 151 144 139 130 123 115 104 96
167 147 111 116 261 272 283 293 288 287 302 319 322 327 330 335 340 337 330 326 284 251 225 212 212 212 214 217 220 224 224 221 219 215 212 208 201 193 176 174 172 168 161 154 144 132 127 111 97
182 150 117 214 238 257 275 283 281 285 288 293 317 323 325 329 332 330 328 320 304 275 243 227 225 225 227 227 228 232 232 229 227 223 218 218 213 206 194 196 194 189 185 179 173 160 150 129 104
201 186 176 211 232 238 257 269 272 278 278 277 303 314 320 321 325 324 323 314 299 286 267 253 238 233 235 238 236 240 238 237 234 228 226 226 225 225 218 213 210 206 204 198 193 187 184 174 166
218 211 209 217 232 235 240 254 260 259 270 277 294 297 310 311 313 315 315 314 300 291 278 267 252 242 236 237 237 247 247 245 247 240 237 240 236 237 236 231 228 223 219 218 217 214 208 206 215
228 225 225 229 234 237 237 242 247 258 265 276 283 291 299 306 311 309 306 310 301 290 284 269 267 258 243 238 241 248 246 247 250 248 247 243 243 242 242 243 245 237 232 234 232 233 236 233 237
230 232 233 237 237 242 239 237 244 254 263 273 275 284 291 301 308 309 310 312 300 289 286 278 278 268 251 244 245 248 247 248 249 252 253 250 245 245 245 249 253 246 240 241 240 244 255 253 245
231 235 236 240 243 245 245 236 243 249 263 271 278 282 291 298 302 307 309 313 306 292 286 283 281 276 261 248 247 252 250 250 251 253 259 255 250 250 252 257 257 254 248 247 249 250 255 262 263
234 235 238 241 243 249 249 238 243 250 261 272 275 278 287 294 299 303 305 309 305 295 292 287 280 276 268 257 251 255 256 255 253 255 259 259 253 254 256 260 258 258 254 250 251 253 254 261 263
234 236 240 240 246 249 248 237 242 248 254 265 271 272 279 290 292 298 300 301 302 298 294 289 278 272 271 263 256 257 256 255 255 256 259 262 258 257 256 259 261 262 259 251 248 252 256 259 260
231 236 240 236 244 253 249 238 237 244 253 263 267 269 271 284 287 295 297 296 298 299 298 292 281 277 267 264 259 259 259 258 259 260 261 260 261 264 261 260 263 264 258 249 246 252 255 255 260
217 227 235 232 237 247 248 241 242 243 250 255 261 269 269 279 287 292 294 294 296 296 297 295 284 277 269 264 261 259 260 260 261 260 261 261 263 262 263 262 262 262 254 250 249 251 255 253 256
215 219 221 227 233 242 247 241 240 242 246 255 257 265 273 276 283 288 285 288 292 292 289 288 285 275 273 270 266 262 261 261 262 261 260 261 264 262 261 259 258 257 251 248 250 251 253 253 252
220 219 216 222 235 242 245 241 239 243 242 251 257 259 266 272 277 283 281 287 289 288 282 282 280 272 272 269 268 267 264 264 265 266 262 262 263 263 261 256 254 256 254 250 250 253 252 251 250
223 219 216 220 232 240 241 241 244 243 242 249 259 260 259 268 272 279 283 285 288 285 280 278 276 276 276 272 273 272 269 273 273 268 265 266 266 265 264 261 256 255 256 252 251 253 254 254 253
222 220 218 221 228 234 239 242 248 250 247 247 253 259 264 269 273 276 279 281 283 284 278 275 274 276 276 275 275 276 274 275 278 274 269 266 266 268 267 263 259 257 254 251 252 254 257 256 255
218 218 222 223 226 232 231 236 245 251 251 244 248 255 260 264 269 271 273 278 281 281 276 271 273 275 274 275 275 277 277 276 278 276 272 266 266 266 265 262 258 256 250 248 252 254 256 256 256
218 217 221 225 227 233 234 237 244 249 252 251 250 258 263 263 265 268 270 273 277 280 275 270 271 274 272 274 277 278 278 276 278 280 275 267 265 265 263 263 258 252 249 249 249 252 253 254 255
220 217 219 224 231 236 237 238 243 248 254 259 255 261 263 262 265 266 268 271 273 276 273 267 269 272 272 274 275 277 279 279 278 278 276 268 264 263 261 260 258 252 249 248 248 249 251 252 253
218 216 215 219 221 233 238 239 241 245 255 258 260 262 260 258 259 263 265 268 271 272 271 267 268 269 271 273 274 275 276 277 277 278 276 270 264 264 263 258 256 254 249 247 247 248 249 250 252
216 215 208 213 221 225 230 237 237 243 252 257 261 260 257 254 255 257 261 265 269 270 269 268 268 268 269 270 272 271 273 273 275 276 274 272 265 264 265 260 257 254 250 249 249 249 248 249 250
213 211 209 215 223 228 234 242 242 242 251 257 258 256 253 252 254 256 261 264 269 270 268 269 268 269 272 273 272 271 273 273 272 272 270 268 267 266 266 264 262 255 250 250 252 252 252 252 252
215 213 211 213 220 226 235 238 242 243 246 247 250 252 253 254 251 255 259 263 267 268 269 268 268 269 271 272 273 273 273 274 272 269 267 265 265 266 264 263 261 254 250 249 251 253 253 254 253
Height
5889 5888 5888 5888 5886 5886 5887 5889 5888 5886 5885 5885 5883 5882 5881 5881 5882 5883 5881 5880 5880 5881 5881 5882 5883 5883 5884 5884 5885 5885 5885 5886 5886 5886 5886 5887 5887 5888 5888 5889 5889 5890 5891 5891 5891 5892 5892 5892 5893
5890 5890 5890 5889 5887 5888 5890 5889 5889 5888 5886 5885 5884 5883 5882 5882 5882 5882 5881 5881 5882 5882 5883 5883 5884 5885 5885 5886 5886 5887 5887 5887 5887 5887 5888 5888 5889 5889 5890 5890 5891 5891 5892 5892 5893 5893 5893 5894 5894
5891 5891 5891 5890 5890 5892 5892 5891 5890 5889 5887 5886 5885 5884 5884 5883 5883 5882 5882 5882 5883 5883 5884 5884 5885 5886 5887 5887 5888 5888 5888 5889 5889 5889 5889 5890 5890 5890 5891 5892 5892 5893 5893 5894 5894 5895 5895 5895 5896
5892 5892 5892 5893 5894 5896 5895 5893 5891 5889 5888 5887 5886 5884 5884 5884 5884 5883 5883 5883 5884 5884 5885 5885 5886 5887 5887 5888 5889 5889 5889 5890 5890 5890 5891 5891 5891 5892 5892 5893 5894 5894 5895 5895 5896 5896 5896 5897 5897
5892 5892 5892 5893 5896 5898 5896 5894 5892 5890 5889 5888 5887 5886 5885 5885 5884 5884 5884 5884 5885 5885 5886 5886 5887 5887 5888 5889 5889 5890 5890 5891 5891 5892 5892 5892 5893 5893 5893 5894 5895 5895 5896 5896 5897 5897 5897 5898 5898
5892 5893 5894 5895 5898 5898 5897 5894 5892 5891 5890 5888 5888 5887 5886 5886 5885 5885 5885 5885 5886 5886 5886 5887 5888 5888 5889 5890 5890 5891 5891 5892 5892 5893 5893 5893 5894 5894 5895 5895 5896 5896 5897 5897 5898 5898 5898 5899 5899
5893 5893 5894 5897 5898 5897 5897 5895 5893 5891 5890 5889 5889 5888 5887 5887 5886 5886 5885 5886 5886 5886 5887 5888 5888 5889 5889 5890 5891 5891 5892 5892 5893 5893 5894 5894 5895 5895 5896 5896 5897 5897 5898 5898 5899 5899 5899 5900 5900
5892 5894 5894 5898 5899 5898 5896 5895 5894 5892 5890 5890 5890 5888 5888 5888 5887 5886 5886 5886 5886 5886 5887 5888 5889 5889 5890 5891 5891 5892 5892 5893 5893 5894 5894 5895 5895 5896 5896 5897 5897 5898 5898 5899 5900 5900 5900 5901 5901
5891 5894 5895 5900 5901 5898 5896 5895 5894 5893 5891 5890 5890 5890 5889 5888 5888 5887 5887 5887 5887 5887 5888 5888 5889 5890 5890 5891 5892 5892 5893 5893 5894 5894 5895 5895 5896 5896 5897 5897 5898 5899 5899 5900 5900 5901 5901 5901 5902
5891 5893 5896 5900 5900 5898 5896 5895 5894 5893 5891 5890 5890 5890 5889 5888 5888 5888 5887 5887 5887 5887 5888 5888 5889 5890 5890 5891 5892 5892 5893 5893 5894 5895 5895 5895 5896 5896 5897 5898 5898 5899 5900 5900 5901 5901 5902 5902 5903
5889 5891 5894 5896 5897 5896 5896 5895 5893 5893 5890 5889 5889 5889 5889 5889 5888 5888 5888 5887 5887 5887 5888 5888 5889 5889 5890 5891 5892 5892 5893 5893 5894 5895 5895 5896 5896 5897 5898 5898 5899 5899 5900 5901 5901 5902 5902 5903 5903
5887 5889 5891 5893 5894 5894 5894 5894 5893 5892 5890 5887 5887 5888 5889 5888 5888 5888 5887 5887 5887 5887 5887 5888 5888 5889 5890 5890 5891 5892 5893 5893 5894 5895 5895 5896 5897 5898 5898 5899 5899 5900 5900 5901 5902 5902 5902 5903 5903
5884 5886 5888 5889 5890 5891 5892 5892 5892 5891 5889 5888 5888 5888 5888 5888 5888 5887 5886 5886 5886 5887 5887 5887 5888 5888 5889 5890 5891 5892 5892 5893 5894 5895 5895 5896 5897 5898 5898 5899 5900 5900 5901 5901 5902 5902 5903 5903 5904
5881 5883 5885 5887 5888 5889 5889 5890 5890 5890 5888 5887 5886 5887 5887 5887 5887 5887 5885 5886 5886 5886 5887 5887 5888 5888 5889 5889 5890 5891 5892 5893 5894 5894 5895 5896 5896 5897 5898 5899 5899 5900 5900 5901 5902 5902 5903 5904 5904
5877 5880 5882 5884 5885 5886 5887 5888 5889 5888 5886 5886 5885 5885 5885 5886 5886 5886 5886 5886 5886 5886 5886 5886 5887 5887 5888 5888 5889 5890 5891 5892 5893 5894 5894 5895 5896 5897 5898 5898 5899 5899 5900 5901 5902 5902 5903 5904 5904
5874 5877 5879 5881 5883 5884 5886 5887 5887 5886 5885 5884 5885 5884 5885 5885 5884 5884 5885 5885 5885 5885 5885 5885 5886 5886 5886 5887 5888 5889 5890 5891 5892 5893 5893 5894 5895 5896 5897 5897 5898 5898 5899 5900 5901 5902 5903 5903 5903
5870 5873 5876 5879 5880 5882 5883 5884 5885 5883 5883 5883 5883 5883 5883 5883 5883 5883 5883 5883 5884 5883 5883 5883 5884 5884 5884 5885 5886 5888 5889 5890 5891 5891 5892 5893 5894 5895 5896 5896 5897 5898 5898 5899 5900 5901 5902 5902 5903
5869 5872 5875 5878 5879 5879 5880 5882 5881 5881 5881 5881 5881 5881 5880 5881 5881 5881 5881 5881 5882 5882 5881 5881 5882 5882 5883 5884 5885 5886 5887 5888 5889 5890 5891 5891 5892 5893 5894 5895 5896 5896 5897 5898 5899 5900 5901 5901 5902
5866 5870 5873 5876 5878 5877 5878 5879 5879 5879 5880 5879 5879 5879 5878 5879 5880 5880 5879 5879 5879 5879 5879 5879 5880 5880 5881 5882 5883 5884 5885 5886 5887 5888 5889 5889 5890 5891 5892 5893 5894 5895 5896 5897 5898 5899 5900 5900 5901
5860 5865 5870 5874 5874 5874 5875 5876 5877 5876 5877 5876 5877 5877 5876 5877 5878 5877 5877 5877 5877 5877 5877 5877 5878 5879 5879 5880 5880 5882 5883 5884 5885 5886 5887 5887 5888 5889 5890 5891 5892 5893 5894 5895 5896 5897 5898 5899 5900
5855 5860 5866 5870 5870 5870 5872 5873 5873 5873 5875 5875 5875 5875 5875 5875 5876 5875 5873 5874 5875 5875 5875 5875 5876 5876 5877 5878 5879 5880 5881 5882 5882 5883 5883 5884 5885 5886 5887 5888 5890 5891 5892 5893 5894 5895 5897 5897 5898
5851 5856 5861 5864 5865 5866 5868 5869 5870 5869 5871 5872 5872 5871 5871 5872 5873 5872 5872 5872 5872 5872 5873 5873 5874 5875 5875 5876 5876 5877 5878 5879 5879 5880 5880 5881 5882 5883 5884 5885 5887 5888 5889 5891 5892 5893 5894 5895 5897
5847 5851 5855 5858 5861 5862 5864 5865 5867 5864 5865 5866 5867 5868 5868 5869 5870 5870 5870 5870 5869 5869 5870 5871 5872 5872 5873 5873 5874 5875 5875 5876 5876 5876 5877 5878 5879 5879 5881 5882 5884 5885 5886 5888 5889 5891 5892 5893 5894
5841 5846 5849 5852 5855 5856 5859 5861 5861 5859 5859 5860 5862 5865 5867 5867 5867 5867 5868 5867 5866 5867 5868 5869 5870 5870 5870 5871 5871 5872 5872 5873 5873 5873 5874 5874 5875 5876 5877 5878 5880 5882 5883 5884 5886 5887 5889 5890 5891
5835 5841 5844 5847 5849 5851 5855 5857 5857 5856 5855 5855 5858 5861 5863 5864 5864 5864 5864 5865 5865 5865 5866 5866 5867 5867 5868 5868 5868 5869 5869 5869 5870 5870 5870 5871 5872 5873 5874 5875 5876 5878 5879 5880 5882 5884 5885 5887 5888
5830 5835 5841 5844 5847 5849 5851 5852 5854 5853 5853 5854 5856 5858 5860 5861 5861 5861 5861 5862 5862 5862 5862 5863 5864 5864 5864 5865 5865 5865 5866 5866 5866 5866 5866 5867 5868 5869 5870 5872 5873 5874 5875 5877 5879 5880 5882 5883 5884
5825 5830 5837 5841 5844 5846 5847 5848 5848 5849 5850 5852 5853 5855 5856 5857 5858 5858 5858 5859 5859 5859 5860 5860 5861 5861 5861 5862 5862 5862 5862 5863 5863 5863 5863 5863 5864 5865 5866 5868 5869 5870 5872 5873 5875 5877 5878 5879 5880
5821 5826 5832 5835 5838 5840 5843 5842 5843 5845 5847 5848 5850 5851 5852 5853 5854 5855 5855 5856 5856 5857 5857 5857 5857 5858 5858 5858 5859 5859 5859 5859 5859 5860 5860 5860 5861 5862 5863 5864 5865 5867 5868 5869 5871 5872 5873 5874 5876
5816 5821 5826 5830 5834 5836 5837 5840 5838 5840 5842 5844 5846 5848 5849 5850 5850 5851 5852 5852 5853 5853 5854 5854 5854 5855 5855 5855 5855 5856 5856 5856 5856 5856 5856 5857 5857 5858 5859 5860 5861 5862 5864 5865 5866 5867 5868 5869 5871
5811 5816 5821 5825 5828 5831 5833 5836 5833 5836 5837 5838 5842 5844 5845 5846 5846 5848 5849 5849 5850 5850 5850 5851 5851 5851 5851 5852 5852 5852 5853 5852 5852 5852 5853 5853 5854 5855 5855 5856 5857 5858 5859 5860 5861 5863 5864 5865 5866